When you browse on this site, cookies collect data to enhance your experience and personalize the content and advertising you see.
Visit our Privacy Policy to learn more. By continuing to use the site, you agree to this use of cookies and data.
  • In Czech Republic
  • List of Countries
  • For 7 days
  • Water Temperature
  • Satellite Maps
  • Weather Map
  • Weather Widgets
  • user-avatar
    Login

    Hourly Weather Velikaya Starina

    Today, 20 July, Saturday

    Time Temperature Precipitation Wind Pressure Humidity
    00:00 +14°C° 0 mm 2 mps 747 mmHg 91%
    01:00 +14°C° 0 mm 2 mps 747 mmHg 92%
    02:00 +14°C° 0 mm 2 mps 747 mmHg 92%
    03:00 +14°C° 0 mm 2 mps 748 mmHg 92%
    04:00 +14°C° 0 mm 2 mps 748 mmHg 91%
    05:00 +14°C° 0 mm 2 mps 748 mmHg 90%
    06:00 +16°C° 0 mm 2 mps 748 mmHg 83%
    07:00 +18°C° 0 mm 2 mps 748 mmHg 77%
    08:00 +20°C° 0 mm 2 mps 748 mmHg 70%
    09:00 +21°C° 0 mm 2 mps 749 mmHg 65%
    10:00 +24°C° 0 mm 3 mps 749 mmHg 59%
    11:00 +25°C° 0 mm 3 mps 749 mmHg 54%
    12:00 +25°C° 0 mm 3 mps 749 mmHg 53%
    13:00 +26°C° 0 mm 3 mps 749 mmHg 52%
    14:00 +26°C° 0 mm 3 mps 749 mmHg 52%
    15:00 +26°C° 0 mm 3 mps 749 mmHg 54%
    16:00 +26°C° 0 mm 2 mps 749 mmHg 56%
    17:00 +26°C° 0 mm 2 mps 749 mmHg 58%
    18:00 +24°C° 0.2 mm 2 mps 749 mmHg 66%
    19:00 +21°C° 0.2 mm 2 mps 749 mmHg 74%
    20:00 +20°C° 0.2 mm 1 mps 749 mmHg 82%
    21:00 +19°C° 0 mm 1 mps 749 mmHg 83%
    22:00 +18°C° 0 mm 1 mps 749 mmHg 84%
    23:00 +16°C° 0 mm 0 mps 749 mmHg 85%

    Tomorrow, 21 July, Sunday

    Time Temperature Precipitation Wind Pressure Humidity
    00:00 +15°C° 0 mm 0 mps 749 mmHg 86%
    01:00 +15°C° 0 mm 0 mps 749 mmHg 87%
    02:00 +15°C° 0 mm 0 mps 750 mmHg 88%
    03:00 +15°C° 0 mm 0 mps 750 mmHg 88%
    04:00 +15°C° 0 mm 0 mps 749 mmHg 88%
    05:00 +15°C° 0 mm 0 mps 749 mmHg 88%
    06:00 +17°C° 0 mm 0 mps 749 mmHg 83%
    07:00 +19°C° 0 mm 0 mps 750 mmHg 78%
    08:00 +21°C° 0 mm 0 mps 750 mmHg 73%
    09:00 +22°C° 0 mm 0 mps 750 mmHg 67%
    10:00 +24°C° 0 mm 0 mps 750 mmHg 62%
    11:00 +25°C° 0 mm 0 mps 750 mmHg 57%
    12:00 +26°C° 0.2 mm 0 mps 750 mmHg 55%
    13:00 +28°C° 0.2 mm 1 mps 750 mmHg 53%
    14:00 +28°C° 0.2 mm 1 mps 749 mmHg 52%
    15:00 +27°C° 0.5 mm 1 mps 749 mmHg 56%
    16:00 +27°C° 0.5 mm 1 mps 749 mmHg 60%
    17:00 +27°C° 0.5 mm 1 mps 749 mmHg 64%
    18:00 +25°C° 0.4 mm 1 mps 749 mmHg 70%
    19:00 +23°C° 0.4 mm 1 mps 749 mmHg 76%
    20:00 +21°C° 0.4 mm 1 mps 749 mmHg 82%
    21:00 +21°C° 0 mm 1 mps 749 mmHg 84%
    22:00 +20°C° 0 mm 1 mps 749 mmHg 86%
    23:00 +18°C° 0 mm 2 mps 749 mmHg 88%

    Day after tomorrow, 22 July, Monday

    Time Temperature Precipitation Wind Pressure Humidity
    00:00 +18°C° 0.1 mm 2 mps 749 mmHg 89%
    01:00 +17°C° 0.1 mm 2 mps 748 mmHg 91%
    02:00 +17°C° 0.1 mm 2 mps 748 mmHg 93%
    03:00 +17°C° 0 mm 2 mps 748 mmHg 93%
    04:00 +17°C° 0 mm 2 mps 748 mmHg 94%
    05:00 +17°C° 0 mm 2 mps 748 mmHg 94%
    06:00 +18°C° 0.1 mm 2 mps 748 mmHg 91%
    07:00 +19°C° 0.1 mm 2 mps 747 mmHg 88%
    08:00 +21°C° 0.1 mm 2 mps 747 mmHg 85%
    09:00 +21°C° 0.9 mm 3 mps 747 mmHg 84%
    10:00 +21°C° 0.9 mm 3 mps 747 mmHg 84%
    11:00 +22°C° 0.9 mm 3 mps 747 mmHg 84%
    12:00 +21°C° 0.7 mm 3 mps 747 mmHg 87%
    13:00 +20°C° 0.7 mm 2 mps 747 mmHg 91%
    14:00 +19°C° 0.7 mm 2 mps 747 mmHg 94%
    15:00 +19°C° 0.1 mm 2 mps 747 mmHg 91%
    16:00 +21°C° 0.1 mm 1 mps 747 mmHg 89%
    17:00 +21°C° 0.1 mm 1 mps 747 mmHg 86%
    18:00 +20°C° 0 mm 1 mps 747 mmHg 89%
    19:00 +19°C° 0 mm 1 mps 747 mmHg 91%
    20:00 +19°C° 0 mm 1 mps 746 mmHg 94%
    21:00 +18°C° 0 mm 1 mps 746 mmHg 95%
    22:00 +17°C° 0 mm 2 mps 746 mmHg 95%
    23:00 +16°C° 0 mm 2 mps 746 mmHg 96%

    23 July, Tuesday

    Time Temperature Precipitation Wind Pressure Humidity
    00:00 +16°C° 0 mm 2 mps 746 mmHg 96%
    01:00 +16°C° 0 mm 2 mps 746 mmHg 97%
    02:00 +14°C° 0 mm 3 mps 746 mmHg 97%
    03:00 +16°C° 0 mm 3 mps 746 mmHg 96%
    04:00 +16°C° 0 mm 3 mps 746 mmHg 95%
    05:00 +16°C° 0 mm 3 mps 746 mmHg 95%
    06:00 +17°C° 0 mm 3 mps 746 mmHg 94%
    07:00 +17°C° 0 mm 2 mps 746 mmHg 94%
    08:00 +18°C° 0 mm 2 mps 746 mmHg 93%
    09:00 +18°C° 0.3 mm 2 mps 746 mmHg 90%
    10:00 +19°C° 0.3 mm 2 mps 746 mmHg 88%
    11:00 +20°C° 0.3 mm 2 mps 746 mmHg 85%
    12:00 +20°C° 0.3 mm 2 mps 746 mmHg 84%
    13:00 +21°C° 0.3 mm 3 mps 746 mmHg 83%
    14:00 +21°C° 0.3 mm 3 mps 746 mmHg 82%
    15:00 +23°C° 0.5 mm 2 mps 746 mmHg 81%
    16:00 +23°C° 0.5 mm 2 mps 746 mmHg 79%
    17:00 +23°C° 0.5 mm 1 mps 746 mmHg 78%
    18:00 +22°C° 0.1 mm 1 mps 746 mmHg 83%
    19:00 +21°C° 0.1 mm 1 mps 746 mmHg 87%
    20:00 +20°C° 0.1 mm 1 mps 746 mmHg 92%
    21:00 +18°C° 0 mm 2 mps 746 mmHg 94%
    22:00 +18°C° 0 mm 2 mps 746 mmHg 95%
    23:00 +17°C° 0 mm 2 mps 747 mmHg 96%

    24 July, Wednesday

    Time Temperature Precipitation Wind Pressure Humidity
    00:00 +17°C° 0.1 mm 2 mps 747 mmHg 96%
    01:00 +17°C° 0.1 mm 2 mps 747 mmHg 96%
    02:00 +17°C° 0.1 mm 2 mps 747 mmHg 96%
    03:00 +17°C° 0 mm 2 mps 747 mmHg 96%
    04:00 +17°C° 0 mm 2 mps 747 mmHg 96%
    05:00 +16°C° 0 mm 2 mps 747 mmHg 96%
    06:00 +18°C° 0 mm 2 mps 747 mmHg 91%
    07:00 +19°C° 0 mm 3 mps 748 mmHg 86%
    08:00 +21°C° 0 mm 3 mps 748 mmHg 82%
    09:00 +22°C° 0 mm 3 mps 748 mmHg 74%
    10:00 +25°C° 0 mm 4 mps 748 mmHg 66%
    11:00 +26°C° 0 mm 4 mps 748 mmHg 58%
    12:00 +27°C° 0 mm 4 mps 748 mmHg 56%
    13:00 +27°C° 0 mm 4 mps 748 mmHg 54%
    14:00 +28°C° 0 mm 4 mps 748 mmHg 52%
    15:00 +27°C° 0 mm 4 mps 748 mmHg 56%
    16:00 +27°C° 0 mm 4 mps 748 mmHg 60%
    17:00 +27°C° 0 mm 3 mps 748 mmHg 63%
    18:00 +25°C° 0.1 mm 3 mps 748 mmHg 70%
    19:00 +23°C° 0.1 mm 2 mps 748 mmHg 76%
    20:00 +21°C° 0.1 mm 2 mps 748 mmHg 83%
    21:00 +20°C° 0 mm 2 mps 748 mmHg 85%
    22:00 +19°C° 0 mm 2 mps 748 mmHg 88%
    23:00 +18°C° 0 mm 2 mps 749 mmHg 90%

    25 July, Thursday

    Time Temperature Precipitation Wind Pressure Humidity
    00:00 +18°C° 0 mm 2 mps 749 mmHg 91%
    01:00 +17°C° 0 mm 2 mps 749 mmHg 92%
    02:00 +17°C° 0 mm 2 mps 749 mmHg 93%
    03:00 +17°C° 0 mm 2 mps 749 mmHg 93%
    04:00 +17°C° 0 mm 2 mps 749 mmHg 93%
    05:00 +17°C° 0 mm 2 mps 749 mmHg 93%
    06:00 +18°C° 0 mm 2 mps 749 mmHg 88%
    07:00 +20°C° 0 mm 2 mps 749 mmHg 82%
    08:00 +23°C° 0 mm 2 mps 749 mmHg 76%
    09:00 +25°C° 0 mm 3 mps 749 mmHg 70%
    10:00 +26°C° 0 mm 3 mps 750 mmHg 63%
    11:00 +28°C° 0 mm 3 mps 750 mmHg 57%
    12:00 +28°C° 0 mm 3 mps 749 mmHg 56%
    13:00 +29°C° 0 mm 3 mps 749 mmHg 55%
    14:00 +29°C° 0 mm 3 mps 749 mmHg 55%
    15:00 +29°C° 0 mm 3 mps 749 mmHg 58%
    16:00 +28°C° 0 mm 3 mps 749 mmHg 61%
    17:00 +28°C° 0 mm 3 mps 749 mmHg 64%
    18:00 +26°C° 0.3 mm 3 mps 749 mmHg 72%
    19:00 +24°C° 0.3 mm 2 mps 749 mmHg 80%
    20:00 +23°C° 0.3 mm 2 mps 749 mmHg 88%
    21:00 +21°C° 0.1 mm 2 mps 749 mmHg 90%
    22:00 +20°C° 0.1 mm 2 mps 750 mmHg 93%
    23:00 +20°C° 0.1 mm 2 mps 750 mmHg 95%
    Show more